WetterOnline ( https://www.wetteronline.at )

Wetter aktuell Kiel

Aktuelles Wetter: Dörnick (28m)

6-stündlich | Neueste Meldungen
Ortszeit Temperatur Wetter
Di, 17.05. 14:00 17.5° C bedeckt
Di, 17.05. 8:00 12.3° C leichter Regen
Di, 17.05. 2:00 13.1° C leichter Regen
Mo, 16.05. 20:00 16.2° C wolkig
Mo, 16.05. 14:00 19.1° C wolkig
Mo, 16.05. 8:00 13.0° C bedeckt
Mo, 16.05. 2:00 6.4° C wolkenlos
So, 15.05. 20:00 14.7° C bewölkt
Ortszeit Temperatur Wetter
Di, 17.05. 15:30 18.3° C bedeckt
Di, 17.05. 15:20 18.3° C bedeckt
Di, 17.05. 15:10 18.1° C bewölkt
Di, 17.05. 15:00 18.1° C wolkig
Di, 17.05. 14:50 18.1° C wolkig
Di, 17.05. 14:40 18.1° C bedeckt
Di, 17.05. 14:30 18.1° C wolkig
Di, 17.05. 14:00 17.5° C bedeckt
Di, 17.05. 13:30 17.3° C wolkig
Di, 17.05. 13:00 17.2° C bedeckt
Di, 17.05. 12:30 16.4° C bedeckt
Ortszeit Relative Feuchte Sichtweite
Di, 17.05. 14:00 73% 55 km
Di, 17.05. 8:00 92% 25 km
Di, 17.05. 2:00 80% 28 km
Mo, 16.05. 20:00 57% 55 km
Mo, 16.05. 14:00 54% 55 km
Mo, 16.05. 8:00 70% 40 km
Mo, 16.05. 2:00 91% 50 km
So, 15.05. 20:00 52% >70 km
Ortszeit Relative Feuchte Sichtweite
Di, 17.05. 15:30 65% 50 km
Di, 17.05. 15:20 65% -
Di, 17.05. 15:10 63% -
Di, 17.05. 15:00 67% 40 km
Di, 17.05. 14:50 67% -
Di, 17.05. 14:40 65% -
Di, 17.05. 14:30 68% 65 km
Di, 17.05. 14:00 73% 55 km
Di, 17.05. 13:30 69% 40 km
Di, 17.05. 13:00 72% 35 km
Di, 17.05. 12:30 74% 35 km
Ortszeit Niederschlagsmenge Niederschlagsart
Di, 17.05. 14:00 0.1 l/m2 in 3 Std. -
Di, 17.05. 8:00 4 l/m2 in 12 Std. Regen
Di, 17.05. 2:00 0.3 l/m2 in 6 Std. Regen
Mo, 16.05. 20:00 0.0 l/m2 in 12 Std. -
Mo, 16.05. 14:00 0.0 l/m2 in 6 Std. -
Mo, 16.05. 8:00 0.0 l/m2 in 12 Std. -
Mo, 16.05. 2:00 0.0 l/m2 in 6 Std. -
So, 15.05. 20:00 0.0 l/m2 in 12 Std. -
Ortszeit Niederschlagsmenge Niederschlagsart
Di, 17.05. 15:30 0.0 l/m2 in 1 Std. -
Di, 17.05. 15:20 keine Meldung -
Di, 17.05. 15:10 keine Meldung -
Di, 17.05. 15:00 0.1 l/m2 in 1 Std. Regen
Di, 17.05. 14:50 keine Meldung -
Di, 17.05. 14:40 keine Meldung -
Di, 17.05. 14:30 0.1 l/m2 in 1 Std. Schneeregen
Di, 17.05. 14:00 0.0 l/m2 in 1 Std. -
Di, 17.05. 13:30 0.0 l/m2 in 1 Std. -
Di, 17.05. 13:00 0.0 l/m2 in 1 Std. -
Di, 17.05. 12:30 0.0 l/m2 in 1 Std. -
Ortszeit Stärke Spitze Richtung
km/h Bft. km/h Grad Sektor
Di, 17.05. 14:00 6 1 7 250° W
Di, 17.05. 8:00 4 1 18 20° N
Di, 17.05. 2:00 4 1 25 130° SO
Mo, 16.05. 20:00 18 3 32 70° O
Mo, 16.05. 14:00 15 3 26 90° O
Mo, 16.05. 8:00 11 2 22 110° O
Mo, 16.05. 2:00 2 1 15 140° SO
So, 15.05. 20:00 9 2 26 50° NO
Ortszeit Stärke Spitze Richtung
km/h Bft. km/h Grad Sektor
Di, 17.05. 15:30 7 2 14 160° S
Di, 17.05. 15:20 7 2 - 160° S
Di, 17.05. 15:10 9 2 - 140° SO
Di, 17.05. 15:00 6 1 9 140° SO
Di, 17.05. 14:50 6 1 - 140° SO
Di, 17.05. 14:40 4 1 - 80° O
Di, 17.05. 14:30 4 1 11 310° NW
Di, 17.05. 14:00 6 1 7 250° W
Di, 17.05. 13:30 4 1 7 340° N
Di, 17.05. 13:00 4 1 11 190° S
Di, 17.05. 12:30 6 1 9 180° S
Ortszeit Untergrenze Bedeckung Gattung
total tief tief mittel hoch
Di, 17.05. 14:00 3000 m 8/8 8/8 - - -
Di, 17.05. 8:00 510 m 8/8 8/8 - - -
Di, 17.05. 2:00 2100 m 8/8 8/8 - - -
Mo, 16.05. 20:00 6300 m 7/8 5/8 - - -
Mo, 16.05. 14:00 4800 m 5/8 5/8 - - -
Mo, 16.05. 8:00 3900 m 8/8 8/8 - - -
Mo, 16.05. 2:00 - 0/8 0/8 - - -
So, 15.05. 20:00 6600 m 8/8 5/8 - - -
Ortszeit Bedeckungsgrad in Achtel und Wolkenuntergrenze
Di, 17.05. 15:30 8(3000m)
Di, 17.05. 15:20 8(3000m)
Di, 17.05. 15:10 7
Di, 17.05. 15:00 2(2400m) 7(3000m)
Di, 17.05. 14:50 2(2400m) 7(3000m)
Di, 17.05. 14:40 8
Di, 17.05. 14:30 1(2400m) 8(3000m)
Di, 17.05. 14:00 8(3000m)
Di, 17.05. 13:30 2(2400m) 8(3000m)
Di, 17.05. 13:00 8(3000m)
Di, 17.05. 12:30 8(3000m)
Ortszeit Luftdruck NN (hPa) Tendenz (hPa in 3 Std.)
Di, 17.05. 14:00 1021 + 0,6
Di, 17.05. 8:00 1020 + 1,3
Di, 17.05. 2:00 1019 + 0,9
Mo, 16.05. 20:00 1018 - 0,5
Mo, 16.05. 14:00 1019 - 1,0
Mo, 16.05. 8:00 1020 - 0,2
Mo, 16.05. 2:00 1021 0,0
So, 15.05. 20:00 1021 - 0,4
Ortszeit Luftdruck NN (hPa) Tendenz (hPa in 3 Std.)
Di, 17.05. 15:30 1021 + 0,3
Di, 17.05. 15:20 1021 keine Meldung
Di, 17.05. 15:10 1021 keine Meldung
Di, 17.05. 15:00 1022 + 0,5
Di, 17.05. 14:50 1022 keine Meldung
Di, 17.05. 14:40 1022 keine Meldung
Di, 17.05. 14:30 1021 + 0,5
Di, 17.05. 14:00 1021 + 0,6
Di, 17.05. 13:30 1021 + 0,9
Di, 17.05. 13:00 1021 + 0,9
Di, 17.05. 12:30 1021 + 0,9
Ortszeit Schneehöhe (cm)
Di, 17.05. 14:00 0
Di, 17.05. 8:00 0
Di, 17.05. 2:00 0
Mo, 16.05. 20:00 0
Mo, 16.05. 14:00 0
Mo, 16.05. 8:00 0
Mo, 16.05. 2:00 0
So, 15.05. 20:00 0
Ortszeit Schneehöhe (cm)
Di, 17.05. 15:30 0
Di, 17.05. 15:20 0
Di, 17.05. 15:10 0
Di, 17.05. 15:00 0
Di, 17.05. 14:50 0
Di, 17.05. 14:40 0
Di, 17.05. 14:30 0
Di, 17.05. 14:00 0
Di, 17.05. 13:30 0
Di, 17.05. 13:00 0
Di, 17.05. 12:30 0
Link zu dieser Seite / Seite empfehlen

Das Wetter in ...